Location: Olda
(45.8833°N, 9.5500°E)
Time: 20:52:41
(UTC+00:00)

Cosmos 1703 Rocket - Pass Details

Date: 03 March 2021
Orbit: 604 x 634 km, 82.5° (Epoch: 13 April)

Event Time Altitude Azimuth Distance (km) Brightness Sun altitude
Rises 18:47:53 0° 350° (N) 2,911 7.3 -17.6°
Reaches altitude 10° 18:50:08 10° 351° (N) 1,995 6.4 -17.9°
Maximum altitude 18:54:33 88° 261° (W) 622 3.5 -18.7°
Drops below altitude 10° 18:58:54 10° 173° (S) 1,961 5.9 -19.4°
Enters shadow 18:59:32 - 173° (S) 2,217 6.2 -19.6°
